| time (UTC) | temp F | wind direction | speed MPH | gust MPH | rain 1hr in | rain 24hr in | rain mn in | humidity % | barometer mb |
| 20260904145526 | 91 | 190 | 1.0 | 2.0 | 0.00 | 0.00 | 0.00 | 68 | 1020.7 |
| 20260904145022 | 91 | 180 | 1.0 | 1.0 | 0.00 | 0.00 | 0.00 | 69 | 1020.9 |
| 20260904144518 | 89 | 171 | 1.0 | 1.0 | 0.00 | 0.00 | 0.00 | 71 | 1020.7 |
| 20260904144014 | 88 | 142 | 0.0 | 0.0 | 0.00 | 0.00 | 0.00 | 72 | 1020.6 |
| 20260904143509 | 87 | 128 | 1.0 | 2.0 | 0.00 | 0.00 | 0.00 | 72 | 1020.8 |
| 20260904143006 | 87 | 104 | 0.0 | 1.0 | 0.00 | 0.00 | 0.00 | 72 | 1020.8 |
| 20260904142502 | 90 | 157 | 0.0 | 0.0 | 0.00 | 0.00 | 0.00 | 70 | 1020.7 |
| 20260904142001 | 89 | 161 | 0.0 | 1.0 | 0.00 | 0.00 | 0.00 | 73 | 1020.6 |
| 20260904141456 | 89 | 109 | 1.0 | 1.0 | 0.00 | 0.00 | 0.00 | 70 | 1020.6 |
| 20260904140953 | 88 | 142 | 0.0 | 0.0 | 0.00 | 0.00 | 0.00 | 72 | 1020.6 |
| 20260904140452 | 87 | 119 | 0.0 | 1.0 | 0.00 | 0.00 | 0.00 | 76 | 1020.5 |
| 20260904135951 | 87 | 141 | 1.0 | 1.0 | 0.00 | 0.00 | 0.00 | 74 | 1020.3 |
| 20260904135446 | 87 | 147 | 1.0 | 1.0 | 0.00 | 0.00 | 0.00 | 76 | 1020.4 |
| 20260904134942 | 86 | 154 | 1.0 | 1.0 | 0.00 | 0.00 | 0.00 | 79 | 1020.3 |
| 20260904134442 | 85 | 149 | 2.0 | 2.0 | 0.00 | 0.00 | 0.00 | 79 | 1020.5 |
| 20260904133937 | 86 | 154 | 1.0 | 2.0 | 0.00 | 0.00 | 0.00 | 77 | 1020.4 |
| 20260904133431 | 88 | 164 | 1.0 | 2.0 | 0.00 | 0.00 | 0.00 | 76 | 1020.3 |
| 20260904132927 | 88 | 168 | 1.0 | 1.0 | 0.00 | 0.00 | 0.00 | 76 | 1020.3 |
| 20260904132422 | 87 | 170 | 0.0 | 1.0 | 0.00 | 0.00 | 0.00 | 78 | 1020.2 |
| 20260904131921 | 88 | 212 | 2.0 | 2.0 | 0.00 | 0.00 | 0.00 | 77 | 1020.4 |
| 20260904131417 | 88 | 175 | 1.0 | 1.0 | 0.00 | 0.00 | 0.00 | 80 | 1020.5 |
| 20260904130913 | 87 | 161 | 0.0 | 0.0 | 0.00 | 0.00 | 0.00 | 82 | 1020.3 |
| 20260904130412 | 85 | 135 | 0.0 | 1.0 | 0.00 | 0.00 | 0.00 | 82 | 1020.4 |
| 20260904125907 | 85 | 145 | 0.0 | 0.0 | 0.00 | 0.00 | 0.00 | 84 | 1020.5 |
| 20260904125404 | 84 | 133 | 0.0 | 2.0 | 0.00 | 0.00 | 0.00 | 87 | 1020.4 |
| 20260904124902 | 83 | 129 | 0.0 | 1.0 | 0.00 | 0.00 | 0.00 | 86 | 1020.5 |
| 20260904124359 | 83 | 128 | 0.0 | 0.0 | 0.00 | 0.00 | 0.00 | 89 | 1020.4 |
| 20260904123854 | 82 | 147 | 0.0 | 0.0 | 0.00 | 0.00 | 0.00 | 94 | 1020.5 |
| 20260904123349 | 79 | 134 | 0.0 | 0.0 | 0.00 | 0.00 | 0.00 | 95 | 1020.5 |
| 20260904122845 | 78 | 342 | 1.0 | 1.0 | 0.00 | 0.00 | 0.00 | 95 | 1020.5 |
| 20260904122344 | 78 | 51 | 0.0 | 0.0 | 0.00 | 0.00 | 0.00 | 96 | 1020.5 |
| 20260904121839 | 77 | 353 | 1.0 | 2.0 | 0.00 | 0.00 | 0.00 | 96 | 1020.4 |
| 20260904121335 | 77 | 335 | 1.0 | 2.0 | 0.00 | 0.00 | 0.00 | 96 | 1020.4 |
| 20260904120832 | 76 | 341 | 1.0 | 2.0 | 0.00 | 0.00 | 0.00 | 96 | 1020.2 |
| 20260904120327 | 76 | 343 | 1.0 | 2.0 | 0.00 | 0.00 | 0.00 | 97 | 1020.3 |
| 20260904115822 | 76 | 341 | 1.0 | 2.0 | 0.00 | 0.00 | 0.00 | 97 | 1020.3 |
| 20260904115317 | 75 | 340 | 2.0 | 2.0 | 0.00 | 0.00 | 0.00 | 97 | 1020.2 |
| 20260904114817 | 75 | 343 | 2.0 | 2.0 | 0.00 | 0.00 | 0.00 | 97 | 1020.3 |
| 20260904114312 | 75 | 338 | 1.0 | 2.0 | 0.00 | 0.00 | 0.00 | 98 | 1020.0 |
| 20260904113807 | 75 | 337 | 1.0 | 2.0 | 0.00 | 0.00 | 0.00 | 97 | 1020.0 |
| 20260904113306 | 75 | 330 | 1.0 | 2.0 | 0.00 | 0.00 | 0.00 | 98 | 1020.1 |
| 20260904112801 | 75 | 345 | 1.0 | 2.0 | 0.00 | 0.00 | 0.00 | 98 | 1020.0 |
| 20260904112256 | 75 | 340 | 1.0 | 2.0 | 0.00 | 0.00 | 0.00 | 98 | 1020.1 |
| 20260904111752 | 75 | 342 | 1.0 | 2.0 | 0.00 | 0.00 | 0.00 | 98 | 1020.1 |
| 20260904111248 | 75 | 336 | 2.0 | 2.0 | 0.00 | 0.00 | 0.00 | 98 | 1020.1 |
| 20260904110743 | 75 | 355 | 2.0 | 3.0 | 0.00 | 0.00 | 0.00 | 98 | 1019.8 |
| 20260904110242 | 75 | 334 | 2.0 | 2.0 | 0.00 | 0.00 | 0.00 | 98 | 1020.0 |
| 20260904105737 | 75 | 357 | 1.0 | 2.0 | 0.00 | 0.00 | 0.00 | 98 | 1019.7 |
| 20260904105232 | 75 | 356 | 2.0 | 2.0 | 0.00 | 0.00 | 0.00 | 98 | 1019.8 |
| 20260904104728 | 75 | 1 | 2.0 | 2.0 | 0.00 | 0.00 | 0.00 | 97 | 1019.7 |
| 20260904104223 | 75 | 337 | 2.0 | 2.0 | 0.00 | 0.00 | 0.00 | 97 | 1019.4 |
| 20260904103720 | 75 | 334 | 2.0 | 2.0 | 0.00 | 0.00 | 0.00 | 97 | 1019.5 |
| 20260904103214 | 75 | 339 | 2.0 | 3.0 | 0.00 | 0.00 | 0.00 | 97 | 1019.5 |
| 20260904102710 | 75 | 336 | 2.0 | 2.0 | 0.00 | 0.00 | 0.00 | 97 | 1019.4 |
| 20260904102205 | 75 | 336 | 2.0 | 2.0 | 0.00 | 0.00 | 0.00 | 97 | 1019.3 |
| 20260904101702 | 75 | 327 | 1.0 | 2.0 | 0.00 | 0.00 | 0.00 | 97 | 1019.4 |
| 20260904101157 | 75 | 0 | 1.0 | 2.0 | 0.00 | 0.00 | 0.00 | 97 | 1019.5 |
| 20260904100653 | 75 | 341 | 2.0 | 2.0 | 0.00 | 0.00 | 0.00 | 97 | 1019.2 |
| 20260904100148 | 75 | 333 | 2.0 | 2.0 | 0.00 | 0.00 | 0.00 | 96 | 1019.2 |
| 20260904095642 | 75 | 355 | 1.0 | 2.0 | 0.00 | 0.00 | 0.00 | 96 | 1019.2 |
| 20260904095138 | 75 | 352 | 1.0 | 2.0 | 0.00 | 0.00 | 0.00 | 96 | 1019.2 |
| 20260904094632 | 75 | 340 | 2.0 | 2.0 | 0.00 | 0.00 | 0.00 | 96 | 1019.5 |
| 20260904094127 | 75 | 337 | 2.0 | 2.0 | 0.00 | 0.00 | 0.00 | 95 | 1019.4 |
| 20260904093624 | 75 | 337 | 1.0 | 3.0 | 0.00 | 0.00 | 0.00 | 95 | 1019.0 |
| 20260904093124 | 76 | 333 | 2.0 | 2.0 | 0.00 | 0.00 | 0.00 | 95 | 1019.2 |
| 20260904092620 | 76 | 338 | 1.0 | 2.0 | 0.00 | 0.00 | 0.00 | 95 | 1019.1 |
| 20260904092116 | 75 | 324 | 2.0 | 2.0 | 0.00 | 0.00 | 0.00 | 95 | 1019.2 |
| 20260904091612 | 76 | 334 | 2.0 | 2.0 | 0.00 | 0.00 | 0.00 | 95 | 1019.1 |
| 20260904091111 | 76 | 341 | 2.0 | 2.0 | 0.00 | 0.00 | 0.00 | 95 | 1019.1 |
| 20260904090607 | 76 | 344 | 2.0 | 2.0 | 0.00 | 0.00 | 0.00 | 95 | 1019.1 |
| 20260904085557 | 76 | 346 | 1.0 | 2.0 | 0.00 | 0.00 | 0.00 | 95 | 1019.0 |
| 20260904085057 | 76 | 322 | 2.0 | 2.0 | 0.00 | 0.00 | 0.00 | 95 | 1018.9 |
| 20260904084552 | 75 | 341 | 2.0 | 2.0 | 0.00 | 0.00 | 0.00 | 95 | 1019.0 |
| 20260904084049 | 76 | 338 | 2.0 | 2.0 | 0.00 | 0.00 | 0.00 | 95 | 1019.0 |
| 20260904083544 | 76 | 337 | 2.0 | 2.0 | 0.00 | 0.00 | 0.00 | 95 | 1019.1 |
| 20260904083040 | 76 | 344 | 1.0 | 2.0 | 0.00 | 0.00 | 0.00 | 95 | 1018.8 |
| 20260904082535 | 76 | 336 | 2.0 | 2.0 | 0.00 | 0.00 | 0.00 | 95 | 1019.1 |
| 20260904082030 | 76 | 320 | 1.0 | 2.0 | 0.00 | 0.00 | 0.00 | 95 | 1018.9 |
| 20260904081525 | 76 | 349 | 1.0 | 2.0 | 0.00 | 0.00 | 0.00 | 95 | 1019.1 |
| 20260904081021 | 76 | 324 | 2.0 | 2.0 | 0.00 | 0.00 | 0.00 | 95 | 1019.0 |
| 20260904080517 | 76 | 339 | 1.0 | 3.0 | 0.00 | 0.00 | 0.00 | 95 | 1018.8 |
| 20260904080013 | 76 | 340 | 2.0 | 2.0 | 0.00 | 0.00 | 0.00 | 95 | 1019.0 |
| 20260904075509 | 76 | 336 | 2.0 | 2.0 | 0.00 | 0.00 | 0.00 | 95 | 1018.8 |
| 20260904075009 | 76 | 346 | 2.0 | 2.0 | 0.00 | 0.00 | 0.00 | 95 | 1018.7 |
| 20260904074502 | 77 | 322 | 2.0 | 2.0 | 0.00 | 0.00 | 0.00 | 95 | 1018.8 |
| 20260904073957 | 77 | 334 | 1.0 | 2.0 | 0.00 | 0.00 | 0.00 | 95 | 1018.9 |
| 20260904073453 | 77 | 339 | 1.0 | 2.0 | 0.00 | 0.00 | 0.00 | 95 | 1018.9 |
| 20260904072948 | 77 | 340 | 2.0 | 2.0 | 0.00 | 0.00 | 0.00 | 95 | 1018.5 |
| 20260904072444 | 76 | 342 | 1.0 | 2.0 | 0.00 | 0.00 | 0.00 | 95 | 1018.8 |
| 20260904071938 | 77 | 350 | 1.0 | 2.0 | 0.00 | 0.00 | 0.00 | 95 | 1018.7 |
| 20260904071434 | 77 | 329 | 2.0 | 2.0 | 0.00 | 0.00 | 0.00 | 95 | 1018.8 |
| 20260904070929 | 77 | 351 | 1.0 | 2.0 | 0.00 | 0.00 | 0.00 | 95 | 1018.7 |
| 20260904070428 | 77 | 352 | 1.0 | 2.0 | 0.00 | 0.00 | 0.00 | 95 | 1018.9 |
| 20260904065923 | 78 | 4 | 1.0 | 2.0 | 0.00 | 0.00 | 0.00 | 95 | 1018.8 |
| 20260904065419 | 77 | 337 | 2.0 | 2.0 | 0.00 | 0.00 | 0.00 | 94 | 1018.9 |
| 20260904064918 | 77 | 340 | 2.0 | 2.0 | 0.00 | 0.00 | 0.00 | 95 | 1018.9 |
| 20260904064414 | 77 | 330 | 2.0 | 2.0 | 0.00 | 0.00 | 0.00 | 94 | 1019.1 |
| 20260904063909 | 78 | 328 | 1.0 | 2.0 | 0.00 | 0.00 | 0.00 | 95 | 1018.9 |
| 20260904063406 | 77 | 322 | 2.0 | 2.0 | 0.00 | 0.00 | 0.00 | 94 | 1018.9 |
| 20260904062900 | 77 | 348 | 2.0 | 3.0 | 0.00 | 0.00 | 0.00 | 94 | 1018.8 |
| 20260904062356 | 77 | 318 | 2.0 | 2.0 | 0.00 | 0.00 | 0.00 | 94 | 1018.9 |
| 20260904061852 | 77 | 322 | 1.0 | 2.0 | 0.00 | 0.00 | 0.00 | 94 | 1019.0 |
| 20260904061349 | 78 | 333 | 1.0 | 2.0 | 0.00 | 0.00 | 0.00 | 93 | 1019.0 |
| 20260904060844 | 78 | 338 | 1.0 | 2.0 | 0.00 | 0.00 | 0.00 | 93 | 1018.9 |
| 20260904060340 | 78 | 336 | 1.0 | 2.0 | 0.00 | 0.00 | 0.00 | 93 | 1019.0 |
| 20260904055835 | 78 | 340 | 2.0 | 3.0 | 0.00 | 0.00 | 0.00 | 93 | 1019.0 |
| 20260904055330 | 77 | 341 | 2.0 | 2.0 | 0.00 | 0.00 | 0.00 | 92 | 1018.9 |
| 20260904054826 | 78 | 335 | 2.0 | 2.0 | 0.00 | 0.00 | 0.00 | 92 | 1018.9 |
| 20260904054322 | 78 | 329 | 2.0 | 3.0 | 0.00 | 0.00 | 0.00 | 92 | 1019.1 |
| 20260904053817 | 78 | 335 | 2.0 | 2.0 | 0.00 | 0.00 | 0.00 | 92 | 1019.0 |
| 20260904053317 | 78 | 337 | 2.0 | 3.0 | 0.00 | 0.00 | 0.00 | 91 | 1019.0 |
| 20260904052813 | 78 | 337 | 2.0 | 2.0 | 0.00 | 0.00 | 0.00 | 91 | 1019.3 |
| 20260904052309 | 78 | 358 | 2.0 | 2.0 | 0.00 | 0.00 | 0.00 | 91 | 1019.2 |
| 20260904051806 | 78 | 348 | 2.0 | 2.0 | 0.00 | 0.00 | 0.00 | 91 | 1019.3 |
| 20260904051301 | 78 | 343 | 2.0 | 2.0 | 0.00 | 0.00 | 0.00 | 91 | 1019.2 |
| 20260904050755 | 78 | 342 | 1.0 | 2.0 | 0.00 | 0.00 | 0.00 | 91 | 1019.2 |
| 20260904050252 | 78 | 335 | 2.0 | 2.0 | 0.00 | 0.00 | 0.00 | 91 | 1019.2 |
| 20260904045747 | 78 | 332 | 2.0 | 2.0 | 0.00 | 0.00 | 0.00 | 90 | 1019.3 |
| 20260904045241 | 78 | 335 | 1.0 | 2.0 | 0.00 | 0.00 | 0.00 | 90 | 1019.1 |
| 20260904044736 | 78 | 340 | 2.0 | 3.0 | 0.00 | 0.00 | 0.00 | 90 | 1019.3 |
| 20260904044233 | 79 | 335 | 2.0 | 2.0 | 0.00 | 0.00 | 0.00 | 90 | 1019.1 |
| 20260904043728 | 78 | 345 | 2.0 | 2.0 | 0.00 | 0.00 | 0.00 | 90 | 1019.5 |
| 20260904043225 | 78 | 337 | 2.0 | 2.0 | 0.00 | 0.00 | 0.00 | 90 | 1019.3 |
| 20260904042720 | 79 | 330 | 2.0 | 2.0 | 0.00 | 0.00 | 0.00 | 89 | 1019.4 |
| 20260904042216 | 79 | 344 | 1.0 | 2.0 | 0.00 | 0.00 | 0.00 | 90 | 1019.5 |
| 20260904041716 | 79 | 327 | 1.0 | 2.0 | 0.00 | 0.00 | 0.00 | 90 | 1019.5 |
| 20260904041212 | 79 | 344 | 1.0 | 2.0 | 0.00 | 0.00 | 0.00 | 90 | 1019.2 |
| 20260904040708 | 79 | 348 | 1.0 | 2.0 | 0.00 | 0.00 | 0.00 | 89 | 1019.5 |
| 20260904040203 | 79 | 337 | 2.0 | 2.0 | 0.00 | 0.00 | 0.00 | 88 | 1019.4 |
| 20260904035659 | 79 | 338 | 1.0 | 2.0 | 0.00 | 0.00 | 0.00 | 88 | 1019.4 |
| 20260904035154 | 79 | 349 | 2.0 | 3.0 | 0.00 | 0.00 | 0.00 | 89 | 1019.6 |
| 20260904034652 | 79 | 335 | 1.0 | 2.0 | 0.00 | 0.00 | 0.00 | 88 | 1019.6 |
| 20260904034149 | 79 | 335 | 2.0 | 2.0 | 0.00 | 0.00 | 0.00 | 88 | 1019.7 |
| 20260904033645 | 79 | 327 | 1.0 | 2.0 | 0.00 | 0.00 | 0.00 | 88 | 1019.7 |
| 20260904033141 | 79 | 346 | 1.0 | 2.0 | 0.00 | 0.00 | 0.00 | 88 | 1019.7 |
| 20260904032637 | 79 | 335 | 2.0 | 2.0 | 0.00 | 0.00 | 0.00 | 87 | 1019.5 |
| 20260904032136 | 79 | 338 | 2.0 | 2.0 | 0.00 | 0.00 | 0.00 | 87 | 1019.8 |
| 20260904031635 | 79 | 343 | 1.0 | 2.0 | 0.00 | 0.00 | 0.00 | 88 | 1019.8 |
| 20260904031131 | 80 | 333 | 2.0 | 2.0 | 0.00 | 0.00 | 0.00 | 88 | 1019.9 |
| 20260904030627 | 80 | 331 | 2.0 | 2.0 | 0.00 | 0.00 | 0.00 | 88 | 1019.7 |
| 20260904030128 | 80 | 337 | 2.0 | 2.0 | 0.00 | 0.00 | 0.00 | 87 | 1019.8 |
| 20260904025624 | 80 | 335 | 2.0 | 2.0 | 0.00 | 0.00 | 0.00 | 87 | 1020.0 |
| 20260904025119 | 80 | 336 | 1.0 | 2.0 | 0.00 | 0.00 | 0.00 | 87 | 1019.7 |
| 20260904024615 | 80 | 341 | 2.0 | 2.0 | 0.00 | 0.00 | 0.00 | 87 | 1019.8 |
| 20260904024110 | 80 | 344 | 1.0 | 2.0 | 0.00 | 0.00 | 0.00 | 88 | 1019.9 |
| 20260904023606 | 80 | 335 | 2.0 | 2.0 | 0.00 | 0.00 | 0.00 | 86 | 1020.0 |
| 20260904023102 | 80 | 339 | 1.0 | 2.0 | 0.00 | 0.00 | 0.00 | 86 | 1019.7 |
| 20260904022601 | 80 | 352 | 1.0 | 2.0 | 0.00 | 0.00 | 0.00 | 86 | 1019.6 |
| 20260904022059 | 80 | 344 | 2.0 | 2.0 | 0.00 | 0.00 | 0.00 | 86 | 1019.6 |
| 20260904021554 | 80 | 340 | 1.0 | 2.0 | 0.00 | 0.00 | 0.00 | 86 | 1019.7 |
| 20260904021048 | 80 | 333 | 2.0 | 2.0 | 0.00 | 0.00 | 0.00 | 86 | 1019.6 |
| 20260904020544 | 80 | 339 | 2.0 | 2.0 | 0.00 | 0.00 | 0.00 | 86 | 1019.4 |
| 20260904020038 | 81 | 349 | 1.0 | 2.0 | 0.00 | 0.00 | 0.00 | 86 | 1019.3 |
| 20260904015533 | 81 | 353 | 1.0 | 2.0 | 0.00 | 0.00 | 0.00 | 86 | 1019.3 |
| 20260904015033 | 81 | 340 | 1.0 | 2.0 | 0.00 | 0.00 | 0.00 | 85 | 1019.1 |
| 20260904014532 | 81 | 338 | 2.0 | 2.0 | 0.00 | 0.00 | 0.00 | 84 | 1019.3 |
| 20260904014027 | 81 | 324 | 2.0 | 2.0 | 0.00 | 0.00 | 0.00 | 84 | 1019.0 |
| 20260904013524 | 81 | 344 | 2.0 | 2.0 | 0.00 | 0.00 | 0.00 | 85 | 1019.2 |
| 20260904013020 | 81 | 339 | 2.0 | 2.0 | 0.00 | 0.00 | 0.00 | 84 | 1019.1 |
| 20260904012514 | 81 | 326 | 2.0 | 2.0 | 0.00 | 0.00 | 0.00 | 84 | 1019.0 |
| 20260904012008 | 81 | 339 | 2.0 | 2.0 | 0.00 | 0.00 | 0.00 | 83 | 1018.8 |
| 20260904011502 | 82 | 331 | 2.0 | 2.0 | 0.00 | 0.00 | 0.00 | 84 | 1019.0 |
| 20260904010958 | 82 | 341 | 2.0 | 2.0 | 0.00 | 0.00 | 0.00 | 83 | 1018.9 |
| 20260904010454 | 82 | 325 | 2.0 | 2.0 | 0.00 | 0.00 | 0.00 | 82 | 1018.7 |
| 20260904005949 | 82 | 356 | 1.0 | 2.0 | 0.00 | 0.00 | 0.00 | 83 | 1018.8 |
| 20260904005445 | 82 | 346 | 1.0 | 2.0 | 0.00 | 0.00 | 0.00 | 83 | 1018.5 |
| 20260904004945 | 82 | 336 | 2.0 | 2.0 | 0.00 | 0.00 | 0.00 | 83 | 1018.4 |
| 20260904004441 | 83 | 341 | 1.0 | 2.0 | 0.00 | 0.00 | 0.00 | 82 | 1018.7 |
| 20260904003941 | 83 | 323 | 1.0 | 1.0 | 0.00 | 0.00 | 0.00 | 82 | 1018.4 |
| 20260904003437 | 83 | 354 | 1.0 | 2.0 | 0.00 | 0.00 | 0.00 | 82 | 1018.5 |
| 20260904002932 | 83 | 339 | 2.0 | 2.0 | 0.00 | 0.00 | 0.00 | 82 | 1018.2 |
| 20260904002429 | 83 | 346 | 2.0 | 3.0 | 0.00 | 0.00 | 0.00 | 82 | 1018.1 |
| 20260904001927 | 83 | 338 | 1.0 | 2.0 | 0.00 | 0.00 | 0.00 | 83 | 1018.3 |
| 20260904001423 | 83 | 339 | 2.0 | 2.0 | 0.00 | 0.00 | 0.00 | 82 | 1018.1 |
| 20260904000918 | 84 | 321 | 1.0 | 2.0 | 0.00 | 0.00 | 0.00 | 81 | 1018.1 |
| 20260904000418 | 84 | 346 | 1.0 | 1.0 | 0.00 | 0.00 | 0.00 | 82 | 1017.9 |
| 20260903235912 | 84 | 339 | 1.0 | 2.0 | 0.00 | 0.00 | 0.00 | 82 | 1017.8 |
| 20260903235409 | 84 | 345 | 2.0 | 2.0 | 0.00 | 0.00 | 0.00 | 83 | 1017.7 |
| 20260903234908 | 84 | 336 | 2.0 | 2.0 | 0.00 | 0.00 | 0.00 | 82 | 1017.8 |
| 20260903234404 | 84 | 330 | 2.0 | 3.0 | 0.00 | 0.00 | 0.00 | 82 | 1017.9 |
| 20260903233900 | 85 | 335 | 1.0 | 2.0 | 0.00 | 0.00 | 0.00 | 81 | 1017.8 |
| 20260903233355 | 85 | 327 | 1.0 | 2.0 | 0.00 | 0.00 | 0.00 | 82 | 1017.7 |
| 20260903232854 | 85 | 342 | 1.0 | 2.0 | 0.00 | 0.00 | 0.00 | 81 | 1017.5 |
| 20260903232351 | 85 | 340 | 1.0 | 2.0 | 0.00 | 0.00 | 0.00 | 81 | 1017.6 |
| 20260903231849 | 85 | 338 | 2.0 | 2.0 | 0.00 | 0.00 | 0.00 | 81 | 1017.6 |
| 20260903231345 | 85 | 334 | 2.0 | 2.0 | 0.00 | 0.00 | 0.00 | 80 | 1017.8 |
| 20260903230840 | 86 | 330 | 1.0 | 2.0 | 0.00 | 0.00 | 0.00 | 80 | 1017.7 |
| 20260903230336 | 86 | 345 | 1.0 | 2.0 | 0.00 | 0.00 | 0.00 | 80 | 1017.7 |
| 20260903225832 | 86 | 339 | 1.0 | 2.0 | 0.00 | 0.00 | 0.00 | 81 | 1017.6 |
| 20260903225327 | 86 | 341 | 2.0 | 2.0 | 0.00 | 0.00 | 0.00 | 80 | 1017.6 |
| 20260903224824 | 86 | 338 | 2.0 | 2.0 | 0.00 | 0.00 | 0.00 | 80 | 1017.7 |
| 20260903224319 | 87 | 335 | 2.0 | 2.0 | 0.00 | 0.00 | 0.00 | 79 | 1017.5 |
| 20260903223815 | 87 | 336 | 2.0 | 2.0 | 0.00 | 0.00 | 0.00 | 79 | 1017.7 |
| 20260903223314 | 87 | 344 | 2.0 | 2.0 | 0.00 | 0.00 | 0.00 | 79 | 1017.8 |
| 20260903222809 | 87 | 339 | 2.0 | 2.0 | 0.00 | 0.00 | 0.00 | 78 | 1017.8 |
| 20260903222308 | 88 | 341 | 2.0 | 2.0 | 0.00 | 0.00 | 0.00 | 77 | 1017.8 |
| 20260903221803 | 88 | 341 | 2.0 | 2.0 | 0.00 | 0.00 | 0.00 | 75 | 1017.6 |
| 20260903221302 | 88 | 336 | 1.0 | 2.0 | 0.00 | 0.00 | 0.00 | 73 | 1017.6 |
| 20260903220800 | 88 | 343 | 1.0 | 2.0 | 0.00 | 0.00 | 0.00 | 74 | 1017.5 |
| 20260903220255 | 89 | 340 | 1.0 | 2.0 | 0.00 | 0.00 | 0.00 | 73 | 1017.7 |
| 20260903215753 | 89 | 335 | 2.0 | 3.0 | 0.00 | 0.00 | 0.00 | 73 | 1017.7 |
| 20260903215249 | 89 | 333 | 1.0 | 2.0 | 0.00 | 0.00 | 0.00 | 73 | 1017.6 |
| 20260903214747 | 89 | 327 | 1.0 | 2.0 | 0.00 | 0.00 | 0.00 | 70 | 1017.6 |
| 20260903214244 | 89 | 333 | 2.0 | 2.0 | 0.00 | 0.00 | 0.00 | 69 | 1017.7 |
| 20260903213737 | 89 | 338 | 2.0 | 2.0 | 0.00 | 0.00 | 0.00 | 68 | 1017.8 |
| 20260903213234 | 91 | 327 | 2.0 | 2.0 | 0.00 | 0.00 | 0.00 | 68 | 1017.7 |
| 20260903212730 | 92 | 342 | 1.0 | 2.0 | 0.00 | 0.00 | 0.00 | 66 | 1017.8 |
| 20260903212226 | 92 | 128 | 0.0 | 1.0 | 0.00 | 0.00 | 0.00 | 71 | 1017.7 |
| 20260903211725 | 93 | 136 | 1.0 | 2.0 | 0.00 | 0.00 | 0.00 | 69 | 1017.8 |
| 20260903211221 | 93 | 139 | 1.0 | 2.0 | 0.00 | 0.00 | 0.00 | 63 | 1017.9 |
| 20260903210718 | 93 | 132 | 2.0 | 3.0 | 0.00 | 0.00 | 0.00 | 65 | 1017.8 |
| 20260903210213 | 94 | 147 | 3.0 | 3.0 | 0.00 | 0.00 | 0.00 | 60 | 1018.0 |
| 20260903205712 | 94 | 166 | 2.0 | 3.0 | 0.00 | 0.00 | 0.00 | 58 | 1018.0 |
| 20260903205211 | 94 | 140 | 2.0 | 3.0 | 0.00 | 0.00 | 0.00 | 59 | 1018.0 |
| 20260903204707 | 94 | 160 | 4.0 | 4.0 | 0.00 | 0.00 | 0.00 | 61 | 1018.1 |
| 20260903204203 | 95 | 134 | 1.0 | 2.0 | 0.00 | 0.00 | 0.00 | 54 | 1018.1 |
| 20260903203658 | 96 | 142 | 1.0 | 2.0 | 0.00 | 0.00 | 0.00 | 56 | 1017.9 |
| 20260903203154 | 99 | 178 | 1.0 | 2.0 | 0.00 | 0.00 | 0.00 | 50 | 1018.1 |
| 20260903202648 | 99 | 184 | 0.0 | 1.0 | 0.00 | 0.00 | 0.00 | 54 | 1018.1 |
| 20260903202144 | 98 | 147 | 0.0 | 0.0 | 0.00 | 0.00 | 0.00 | 54 | 1018.1 |
| 20260903201638 | 96 | 127 | 1.0 | 1.0 | 0.00 | 0.00 | 0.00 | 57 | 1018.1 |
| 20260903201137 | 96 | 137 | 0.0 | 0.0 | 0.00 | 0.00 | 0.00 | 56 | 1018.2 |
| 20260903200632 | 94 | 97 | 1.0 | 1.0 | 0.00 | 0.00 | 0.00 | 57 | 1018.3 |
| 20260903200128 | 94 | 115 | 0.0 | 3.0 | 0.00 | 0.00 | 0.00 | 57 | 1018.4 |
| 20260903195624 | 94 | 95 | 2.0 | 3.0 | 0.00 | 0.00 | 0.00 | 59 | 1018.4 |
| 20260903195119 | 94 | 89 | 3.0 | 3.0 | 0.00 | 0.00 | 0.00 | 60 | 1018.7 |
| 20260903194614 | 94 | 99 | 3.0 | 3.0 | 0.00 | 0.00 | 0.00 | 56 | 1018.9 |
| 20260903194114 | 95 | 85 | 3.0 | 3.0 | 0.00 | 0.00 | 0.00 | 55 | 1018.8 |
| 20260903193610 | 95 | 116 | 3.0 | 8.0 | 0.00 | 0.00 | 0.00 | 54 | 1018.7 |
| 20260903193106 | 95 | 120 | 2.0 | 3.0 | 0.00 | 0.00 | 0.00 | 55 | 1018.9 |
| 20260903192602 | 95 | 129 | 1.0 | 3.0 | 0.00 | 0.00 | 0.00 | 56 | 1018.7 |
| 20260903192057 | 100 | 142 | 1.0 | 2.0 | 0.00 | 0.00 | 0.00 | 51 | 1019.0 |
| 20260903191553 | 98 | 136 | 1.0 | 1.0 | 0.00 | 0.00 | 0.00 | 52 | 1018.9 |
| 20260903191048 | 96 | 127 | 1.0 | 2.0 | 0.00 | 0.00 | 0.00 | 55 | 1019.1 |
| 20260903190542 | 97 | 119 | 2.0 | 2.0 | 0.00 | 0.00 | 0.00 | 58 | 1019.1 |
| 20260903190041 | 96 | 132 | 0.0 | 1.0 | 0.00 | 0.00 | 0.00 | 52 | 1019.2 |
| 20260903185536 | 95 | 108 | 1.0 | 2.0 | 0.00 | 0.00 | 0.00 | 54 | 1019.2 |
| 20260903185032 | 95 | 127 | 0.0 | 1.0 | 0.00 | 0.00 | 0.00 | 55 | 1019.3 |
| 20260903184528 | 95 | 128 | 1.0 | 2.0 | 0.00 | 0.00 | 0.00 | 56 | 1019.3 |
| 20260903184023 | 97 | 125 | 1.0 | 1.0 | 0.00 | 0.00 | 0.00 | 51 | 1019.3 |
| 20260903183522 | 101 | 154 | 0.0 | 0.0 | 0.00 | 0.00 | 0.00 | 50 | 1019.5 |
| 20260903183017 | 100 | 157 | 0.0 | 0.0 | 0.00 | 0.00 | 0.00 | 52 | 1019.5 |
| 20260903182516 | 99 | 158 | 0.0 | 0.0 | 0.00 | 0.00 | 0.00 | 54 | 1019.6 |
| 20260903182013 | 95 | 142 | 0.0 | 1.0 | 0.00 | 0.00 | 0.00 | 55 | 1019.8 |
| 20260903181511 | 94 | 146 | 0.0 | 1.0 | 0.00 | 0.00 | 0.00 | 58 | 1019.8 |
| 20260903181011 | 94 | 141 | 0.0 | 0.0 | 0.00 | 0.00 | 0.00 | 60 | 1019.8 |
| 20260903180507 | 93 | 131 | 1.0 | 2.0 | 0.00 | 0.00 | 0.00 | 60 | 1019.8 |
| 20260903180005 | 93 | 148 | 1.0 | 1.0 | 0.00 | 0.00 | 0.00 | 57 | 1020.1 |
| 20260903175505 | 92 | 125 | 1.0 | 1.0 | 0.00 | 0.00 | 0.00 | 62 | 1020.0 |
| 20260903175004 | 92 | 122 | 1.0 | 2.0 | 0.00 | 0.00 | 0.00 | 65 | 1020.2 |
| 20260903174459 | 91 | 109 | 2.0 | 2.0 | 0.00 | 0.00 | 0.00 | 67 | 1020.0 |
| 20260903173954 | 91 | 107 | 2.0 | 3.0 | 0.00 | 0.00 | 0.00 | 68 | 1020.1 |
| 20260903173449 | 91 | 115 | 1.0 | 2.0 | 0.00 | 0.00 | 0.00 | 68 | 1020.2 |
| 20260903172945 | 91 | 119 | 1.0 | 2.0 | 0.00 | 0.00 | 0.00 | 67 | 1020.0 |
| 20260903172440 | 91 | 117 | 1.0 | 1.0 | 0.00 | 0.00 | 0.00 | 67 | 1020.1 |
| 20260903171935 | 91 | 116 | 1.0 | 1.0 | 0.00 | 0.00 | 0.00 | 70 | 1020.4 |
| 20260903171430 | 90 | 119 | 1.0 | 2.0 | 0.00 | 0.00 | 0.00 | 68 | 1020.5 |
| 20260903170930 | 90 | 101 | 2.0 | 2.0 | 0.00 | 0.00 | 0.00 | 70 | 1020.5 |
| 20260903170425 | 90 | 110 | 2.0 | 2.0 | 0.00 | 0.00 | 0.00 | 68 | 1020.6 |
| 20260903165924 | 90 | 113 | 1.0 | 2.0 | 0.00 | 0.00 | 0.00 | 72 | 1020.7 |
| 20260903165419 | 89 | 104 | 2.0 | 3.0 | 0.00 | 0.00 | 0.00 | 71 | 1021.0 |
| 20260903164918 | 89 | 103 | 2.0 | 3.0 | 0.00 | 0.00 | 0.00 | 72 | 1020.9 |
| 20260903164414 | 89 | 105 | 2.0 | 3.0 | 0.00 | 0.00 | 0.00 | 71 | 1020.9 |
| 20260903163913 | 89 | 115 | 2.0 | 2.0 | 0.00 | 0.00 | 0.00 | 70 | 1021.0 |
| 20260903163410 | 89 | 102 | 2.0 | 3.0 | 0.00 | 0.00 | 0.00 | 75 | 1021.1 |
| 20260903162906 | 88 | 107 | 2.0 | 2.0 | 0.00 | 0.00 | 0.00 | 72 | 1020.8 |
| 20260903162402 | 88 | 99 | 2.0 | 3.0 | 0.00 | 0.00 | 0.00 | 73 | 1021.1 |
| 20260903161857 | 88 | 115 | 2.0 | 3.0 | 0.00 | 0.00 | 0.00 | 74 | 1021.0 |
| 20260903161352 | 88 | 116 | 2.0 | 2.0 | 0.00 | 0.00 | 0.00 | 76 | 1021.2 |
| 20260903160848 | 87 | 116 | 2.0 | 3.0 | 0.00 | 0.00 | 0.00 | 73 | 1021.1 |
| 20260903160347 | 87 | 130 | 2.0 | 2.0 | 0.00 | 0.00 | 0.00 | 76 | 1020.9 |
| 20260903155845 | 87 | 125 | 2.0 | 2.0 | 0.00 | 0.00 | 0.00 | 74 | 1021.2 |
| 20260903155341 | 87 | 115 | 2.0 | 3.0 | 0.00 | 0.00 | 0.00 | 75 | 1021.1 |
| 20260903154836 | 87 | 123 | 2.0 | 2.0 | 0.00 | 0.00 | 0.00 | 75 | 1021.1 |
| 20260903154332 | 87 | 124 | 2.0 | 2.0 | 0.00 | 0.00 | 0.00 | 77 | 1021.1 |
| 20260903153827 | 87 | 132 | 2.0 | 3.0 | 0.00 | 0.00 | 0.00 | 76 | 1021.2 |
| 20260903153323 | 87 | 123 | 2.0 | 2.0 | 0.00 | 0.00 | 0.00 | 74 | 1021.2 |
| 20260903152819 | 87 | 121 | 1.0 | 2.0 | 0.00 | 0.00 | 0.00 | 74 | 1021.4 |
| 20260903152315 | 87 | 116 | 1.0 | 2.0 | 0.00 | 0.00 | 0.00 | 77 | 1021.2 |
| 20260903151810 | 87 | 124 | 0.0 | 1.0 | 0.00 | 0.00 | 0.00 | 77 | 1021.4 |
| 20260903151306 | 86 | 117 | 1.0 | 2.0 | 0.00 | 0.00 | 0.00 | 79 | 1021.1 |
| 20260903150805 | 85 | 113 | 2.0 | 2.0 | 0.00 | 0.00 | 0.00 | 78 | 1021.2 |
| 20260903150259 | 85 | 115 | 2.0 | 2.0 | 0.00 | 0.00 | 0.00 | 78 | 1021.2 |
| 20260903145755 | 85 | 107 | 1.0 | 2.0 | 0.00 | 0.00 | 0.00 | 79 | 1021.2 |